Vorticity
nan nan nan nan nan nan nan nan nan nan nan nan nan nan nan nan nan nan nan nan nan nan nan nan nan nan nan nan nan nan nan nan nan nan nan nan nan nan nan nan nan nan nan nan nan
nan 7 8 9 9 9 9 9 9 9 9 9 9 8 8 7 11 10 16 14 13 10 11 4 4 3 3 3 5 7 2 4 9 9 10 5 3 4 9 11 5 6 16 14 nan
nan 7 8 8 9 9 10 9 9 10 9 9 9 8 8 7 12 20 19 16 8 5 5 4 7 3 0 6 4 3 5 4 5 6 9 5 5 2 10 12 12 8 7 5 nan
nan 7 7 7 8 9 10 10 10 9 10 9 9 9 10 10 4 16 20 18 11 5 5 9 7 4 4 8 3 2 8 5 5 7 5 0 1 5 4 8 15 19 10 7 nan
nan 8 8 7 8 9 10 10 10 10 10 8 9 10 10 6 9 7 20 14 9 9 8 8 5 5 5 4 8 9 2 8 5 3 4 3 -0 6 11 9 14 17 11 6 nan
nan 8 8 8 8 9 11 10 10 10 10 9 9 8 8 0 12 10 12 11 9 10 9 4 6 6 6 12 6 5 10 6 8 10 7 6 5 6 9 13 16 9 8 7 nan
nan 8 8 7 8 9 11 11 10 10 10 12 10 7 8 11 5 15 12 9 10 9 6 5 9 6 4 13 11 3 10 14 10 7 11 11 11 5 7 14 13 9 8 8 nan
nan 8 7 7 8 9 10 11 13 12 12 11 8 7 8 20 10 6 6 12 11 9 8 6 10 5 0 7 16 16 8 11 21 10 8 11 13 13 9 12 11 10 8 8 nan
nan 7 7 7 8 9 11 17 21 13 12 9 4 5 9 10 14 7 6 10 7 11 11 6 9 11 7 3 6 10 11 12 9 15 9 11 5 13 9 10 10 10 8 7 nan
nan 8 8 7 8 10 9 21 20 10 3 1 8 11 17 13 20 14 8 9 7 4 8 5 5 7 8 9 5 7 7 11 9 12 9 9 9 5 9 9 9 9 7 6 nan
nan 9 8 7 9 9 15 16 4 8 6 3 0 4 8 12 18 14 13 7 6 4 4 10 5 10 8 1 3 11 12 6 14 12 11 7 11 6 7 10 10 7 5 4 nan
nan 8 9 10 8 16 16 1 1 9 22 15 1 2 -1 3 9 18 5 6 9 4 3 7 11 8 6 6 5 8 11 4 3 11 12 14 7 3 8 11 8 7 6 5 nan
nan 9 9 10 17 23 11 3 2 10 18 22 15 12 11 5 9 15 -1 5 11 7 5 -0 14 9 7 4 9 7 7 5 3 7 12 10 5 4 7 6 8 8 7 6 nan
nan 9 9 19 17 10 15 12 11 7 14 20 12 18 16 9 18 14 4 1 10 12 7 5 9 12 5 7 8 8 8 4 13 6 15 7 1 11 8 5 7 6 6 6 nan
nan 9 14 12 15 6 7 16 15 5 10 13 12 16 19 6 14 17 5 1 8 9 5 11 6 12 10 7 5 5 14 14 9 6 10 15 8 20 4 5 8 8 7 6 nan
nan 9 13 17 15 5 2 14 13 7 15 7 8 14 12 13 8 10 8 2 7 11 6 -1 13 14 11 11 7 8 9 13 9 11 10 15 13 14 11 10 8 9 8 8 nan
nan 10 19 17 8 12 13 10 6 7 13 15 12 15 6 8 11 10 8 6 5 6 10 8 8 5 9 14 15 9 4 6 7 3 14 13 4 9 26 19 11 11 9 8 nan
nan 26 28 18 6 5 13 9 8 9 -1 10 22 15 8 7 9 10 5 5 5 4 8 14 10 13 9 10 14 15 0 5 11 8 5 7 11 4 8 18 16 16 15 8 nan
nan 30 19 19 17 13 10 7 5 9 11 6 16 8 8 6 9 13 10 9 8 3 3 10 8 13 14 18 14 7 3 3 10 10 9 10 11 11 8 10 13 11 13 13 nan
nan 14 16 17 16 9 9 12 3 6 17 13 7 12 19 10 4 9 13 16 9 3 0 8 7 7 11 5 12 14 11 5 8 7 9 5 4 11 14 6 8 13 14 13 nan
nan 10 13 15 8 7 14 12 6 6 9 14 12 15 13 16 16 16 5 14 21 10 4 -1 4 13 6 13 6 8 2 0 4 12 17 9 7 3 10 10 10 12 15 16 nan
nan 16 11 7 9 10 16 6 10 11 4 7 9 13 12 9 13 18 13 8 19 19 15 5 10 8 4 4 7 10 20 10 8 8 -0 4 12 8 7 9 11 13 13 15 nan
nan 15 11 9 14 11 13 10 9 12 8 6 8 8 12 12 9 7 8 11 16 14 15 11 14 9 5 5 9 11 9 7 8 9 10 10 10 7 6 6 8 10 13 16 nan
nan 11 12 9 9 21 15 10 7 7 13 12 10 9 10 6 6 10 6 5 9 11 10 9 4 8 7 2 11 17 8 10 7 5 9 13 9 7 2 5 6 8 13 18 nan
nan 9 4 6 12 16 16 18 14 6 4 12 14 11 11 13 15 15 4 2 7 7 9 14 10 7 4 4 8 14 18 13 12 10 13 13 11 6 5 6 7 10 11 12 nan
nan 9 7 7 5 6 7 15 17 7 10 17 15 14 13 7 15 21 15 10 9 9 8 10 18 15 10 3 11 17 15 12 14 19 13 11 14 4 9 7 5 8 8 8 nan
nan nan nan nan nan nan nan nan nan nan nan nan nan nan nan nan nan nan nan nan nan nan nan nan nan nan nan nan nan nan nan nan nan nan nan nan nan nan nan nan nan nan nan nan nan
CAPE
2 3 4 3 4 2 4 4 1 1 1 1 1 1 0 0 0 0 0 0 0 0 0 0 0 0 0 0 0 0 0 0 0 0 0 0 0 0 0 0 0 12 569 1664 1553
4 4 2 2 3 3 2 3 2 1 1 1 1 0 0 0 0 0 0 0 0 0 0 0 0 0 0 0 0 0 0 0 0 0 0 0 0 0 0 1 108 1253 1648 1653 1492
2 2 2 3 2 2 1 2 2 3 1 1 0 0 0 0 0 0 0 0 0 0 0 0 0 0 0 0 0 0 0 0 0 0 0 0 0 0 0 292 149 1141 1765 1624 1572
3 3 2 2 3 4 2 2 2 2 3 1 0 0 0 0 0 0 172 0 0 0 0 0 0 0 0 0 0 0 0 0 0 0 0 0 0 0 0 321 350 991 1610 1675 1567
2 5 5 3 3 5 6 1 2 1 3 1 0 0 0 0 0 0 11 0 0 0 0 0 0 0 0 0 0 0 0 0 0 0 0 0 0 0 0 72 711 1372 1698 1760 1349
2 4 5 3 7 6 6 3 2 2 3 3 0 0 0 0 0 0 0 0 0 0 0 0 0 0 0 0 0 0 0 0 0 0 0 0 0 0 0 0 1197 1626 1843 1687 1209
3 2 6 3 5 5 7 7 4 2 2 1 1 0 0 0 0 0 0 0 0 0 0 0 0 0 0 0 0 0 0 0 0 0 0 0 0 0 0 476 1736 1760 1980 1538 1297
2 2 4 3 3 6 4 2 1 2 3 1 1 0 0 0 0 0 0 0 0 0 0 0 0 0 0 0 0 0 0 0 0 0 0 0 0 0 3 1288 2062 1850 2065 1619 1471
6 5 5 3 4 5 3 1 1 2 1 1 0 0 0 0 0 0 0 0 0 0 0 0 0 0 0 0 0 0 0 0 0 0 0 0 0 0 151 1148 2233 2172 2055 1719 1860
7 9 8 6 7 10 0 0 1 1 3 0 0 0 0 0 0 0 0 0 0 0 0 0 0 0 0 0 0 0 0 0 0 0 0 0 0 0 426 1090 1971 2219 2051 1913 2039
5 9 10 7 5 11 0 0 0 0 0 0 0 0 0 0 0 0 0 0 0 0 0 0 0 0 0 0 0 0 0 0 0 0 0 0 0 1 579 1105 2177 2324 2215 2075 1928
3 5 7 13 10 12 6 0 0 0 0 0 0 0 0 0 0 0 0 0 0 0 0 0 0 0 0 0 0 0 0 0 0 0 0 0 0 217 895 861 2102 2214 2208 2085 1592
8 7 8 12 0 2 0 0 0 0 0 0 0 0 0 0 0 0 0 0 0 0 0 0 0 0 0 0 0 0 0 0 0 0 0 0 50 500 908 1213 1498 2121 2121 2046 1865
10 9 13 7 0 0 0 0 0 0 0 0 0 0 0 0 0 0 0 0 0 0 0 0 0 0 0 0 0 0 0 0 0 0 0 0 0 90 581 1127 1518 1974 2068 1997 1944
14 9 11 10 1 0 0 0 0 0 0 0 0 0 0 0 0 0 0 0 0 0 0 0 0 0 0 0 0 0 0 0 0 0 19 25 0 85 267 779 1320 1920 2016 1735 1737
17 12 12 0 4 0 0 0 0 0 0 0 0 0 0 0 0 0 0 0 0 0 0 0 0 0 0 0 0 0 0 0 0 9 3 14 1 310 353 220 551 1507 1959 2105 2186
18 4 8 5 0 0 0 0 1 2 0 51 0 0 0 1 12 0 0 0 0 0 0 0 0 0 0 0 0 0 0 5 18 7 107 0 0 40 6 151 327 723 1436 2007 2087
15 3 0 0 0 0 0 0 0 0 0 175 80 0 8 28 20 0 0 0 0 0 0 1 2 0 0 0 0 0 0 58 26 52 83 0 0 20 36 369 431 701 1153 1749 1909
8 0 0 0 0 0 0 0 0 0 0 70 216 39 81 73 76 45 7 0 0 0 38 52 117 0 0 0 0 0 0 1 13 0 0 2 0 0 5 228 472 634 1310 1658 1898
15 3 0 0 0 0 0 0 0 5 14 220 222 268 167 156 131 105 61 1 0 0 8 81 121 0 0 0 0 0 0 2 41 139 94 27 0 43 0 4 58 153 336 781 1431
10 56 5 1 0 0 0 0 0 46 73 171 319 317 218 172 139 115 118 61 1 2 2 26 97 4 0 3 24 0 0 0 68 48 146 131 44 2 73 134 189 239 362 586 972
3 231 0 0 0 0 0 0 10 65 7 3 128 253 326 233 205 185 166 195 19 3 4 4 71 103 77 0 0 3 58 60 138 206 52 95 53 23 104 126 158 227 276 479 745
152 338 4 6 31 0 0 0 49 50 26 1 0 214 302 336 316 229 129 0 0 55 34 5 75 251 20 1 0 0 0 23 161 321 181 125 108 13 32 144 147 170 118 288 541
217 436 491 410 280 60 0 0 4 46 96 55 109 233 215 206 140 29 47 0 0 16 0 66 129 138 191 77 28 13 0 0 64 221 163 85 104 18 22 25 7 24 68 247 315
223 235 40 353 354 242 163 28 11 60 176 187 308 252 245 240 148 230 30 0 0 0 0 97 258 201 55 0 0 0 0 0 0 18 65 65 5 65 9 0 0 0 0 3 44
26 47 8 176 248 229 156 110 99 58 166 117 308 190 185 172 115 135 60 44 26 0 0 17 101 130 11 0 0 0 0 0 0 0 0 0 73 1 0 0 0 0 0 0 0
1 0 16 23 167 177 51 20 34 54 27 11 174 188 70 0 0 26 40 64 29 9 44 38 4 44 88 0 0 7 2 0 0 7 28 39 48 0 0 0 0 0 0 0 0